• Join FlightAware (Why Join?)
  • Login
  • US Flag 
08:18PM EST


 

Airport Tracker/Info


-or-


 

Live Flight TrackerFlight Track Log ✈ SWA499 ✈ 25-Jun-2013 ✈ KSFO - KSAN

Flight Track Log - Related Links

Times and Time Zones

All times are in EDT time to prevent confusion due to time zone crossing. See the SWA499 flight status page for this flight to view local times or setup timezone preferences in your user account.

Time Position Orientation Groundspeed Altitude Reporting Facility
EDT Latitude Longitude Course Direction KTS MPH feet Rate Location/Type
10:20PM 37.6500 -122.3667 323° Northwest 182 209 1,400  Level Northern Cal TRACON
10:22PM 37.7364 -122.4483 323° Northwest 225 259 5,900 2,700 Climbing Oakland Center
10:23PM 37.7225 -122.5161 255° West 235 270 9,300 2,160 Climbing Oakland Center
10:24PM 37.6706 -122.5794 224° Southwest 254 292 10,400 2,040 Climbing Oakland Center
10:25PM 37.5889 -122.6158 199° South 320 368 13,500 3,060 Climbing Oakland Center
10:26PM 37.4928 -122.6078 176° South 347 399 16,700 2,880 Climbing Oakland Center
10:27PM 37.3917 -122.6003 177° South 361 415 19,400 2,520 Climbing Oakland Center
10:28PM 37.2853 -122.5928 177° South 380 437 21,900 2,460 Climbing Oakland Center
10:29PM 37.1536 -122.5839 177° South 396 456 24,500 2,220 Climbing Oakland Center
10:30PM 37.0389 -122.5778 178° South 409 471 26,500 1,800 Climbing Oakland Center
10:31PM 36.9200 -122.5658 175° South 424 488 28,300 1,800 Climbing Oakland Center
10:32PM 36.7983 -122.5311 167° South 443 510 30,200 1,800 Climbing Oakland Center
10:33PM 36.6822 -122.4703 157° South 458 527 32,000 1,740 Climbing Oakland Center
10:34PM 36.5872 -122.3564 136° Southeast 473 544 33,800 1,620 Climbing Oakland Center
10:35PM 36.4894 -122.2453 138° Southeast 478 550 35,400 1,620 Climbing Oakland Center
10:36PM 36.3936 -122.1328 137° Southeast 476 548 37,200 1,620 Climbing Oakland Center
10:37PM 36.2797 -121.9997 137° Southeast 472 543 38,800 840 Climbing Oakland Center
10:38PM 36.1850 -121.8906 137° Southeast 468 539 39,000 60 Climbing Oakland Center
10:39PM 36.0928 -121.7861 138° Southeast 462 532 39,000  Level Oakland Center
10:40PM 35.9997 -121.6769 136° Southeast 462 532 39,000  Level Oakland Center
10:41PM 35.9058 -121.5708 138° Southeast 461 531 39,000  Level Oakland Center
10:42PM 35.8131 -121.4633 137° Southeast 460 529 39,000  Level Oakland Center
10:43PM 35.7194 -121.3561 137° Southeast 460 529 39,000  Level Oakland Center
10:44PM 35.6272 -121.2519 137° Southeast 455 524 39,000  Level Oakland Center
10:45PM 35.5158 -121.1258 137° Southeast 455 524 39,000  Level Oakland Center
10:46PM 35.4792 -121.0792 134° Southeast 453 521 39,000  Level Los Angeles Center
10:47PM 35.4069 -120.9500 124° Southeast 457 526 39,000  Level Los Angeles Center
10:48PM 35.3347 -120.8214 125° Southeast 459 528 39,000  Level Los Angeles Center
10:49PM 35.2458 -120.6664 125° Southeast 462 532 39,000  Level Los Angeles Center
10:50PM 35.1725 -120.5356 124° Southeast 464 534 39,000  Level Los Angeles Center
10:51PM 35.0994 -120.4053 124° Southeast 463 533 39,000  Level Los Angeles Center
10:52PM 35.0256 -120.2772 125° Southeast 461 531 39,000  Level Los Angeles Center
10:53PM 34.9522 -120.1483 125° Southeast 460 529 39,000  Level Los Angeles Center
10:54PM 34.8736 -120.0119 125° Southeast 460 529 39,000  Level Los Angeles Center
10:55PM 34.7997 -119.8844 125° Southeast 463 533 39,000  Level Los Angeles Center
10:56PM 34.7258 -119.7581 125° Southeast 462 532 39,000  Level Los Angeles Center
10:57PM 34.6372 -119.6047 125° Southeast 462 532 39,000  Level Los Angeles Center
10:58PM 34.5722 -119.5017 127° Southeast 459 528 39,000  Level Los Angeles Center
10:59PM 34.4828 -119.3517 126° Southeast 458 527 39,000  Level Los Angeles Center
11:00PM 34.4086 -119.2258 126° Southeast 459 528 39,000  Level Los Angeles Center
11:01PM 34.3347 -119.1019 126° Southeast 456 525 39,000  Level Los Angeles Center
11:02PM 34.2617 -118.9781 125° Southeast 453 521 39,000  Level Los Angeles Center
11:03PM 34.1886 -118.8550 126° Southeast 451 519 39,000  Level Los Angeles Center
11:04PM 34.1006 -118.7111 126° Southeast 445 512 39,000 -60 Level Los Angeles Center
11:05PM 34.0286 -118.5892 125° Southeast 446 513 38,900 -720 Descending Los Angeles Center
11:06PM 33.9569 -118.4711 126° Southeast 437 503 37,600 -1,800 Descending Los Angeles Center
11:07PM 33.8764 -118.3578 131° Southeast 443 510 35,200 -2,460 Descending Los Angeles Center
11:08PM 33.8028 -118.2692 135° Southeast 445 512 32,600 -2,220 Descending Los Angeles Center
11:10PM 33.7078 -118.1169 127° Southeast 477 549 30,200 -1,860 Descending Los Angeles Center
11:11PM 33.6989 -117.9344 93° East 454 522 28,400 -1,500 Descending Los Angeles Center
11:12PM 33.6917 -117.7986 94° East 415 478 27,100 -1,680 Descending Los Angeles Center
11:13PM 33.5828 -117.7525 161° South 355 409 25,000 -2,100 Descending Los Angeles Center
11:13PM 33.5167 -117.7833 201° Southwest 359 413 23,400 -2,220 Descending Southern California TRACON
11:14PM 33.4167 -117.7833 180° South 362 417 21,400 -1,980 Descending Southern California TRACON
11:15PM 33.3500 -117.7000 134° Southeast 358 412 19,700 -1,740 Descending Southern California TRACON
11:16PM 33.2833 -117.6167 134° Southeast 350 403 18,000 -1,680 Descending Southern California TRACON
11:17PM 33.2167 -117.5333 134° Southeast 343 395 16,400 -1,620 Descending Southern California TRACON
11:18PM 33.1333 -117.4667 146° Southeast 336 387 14,700 -1,620 Descending Southern California TRACON
11:19PM 33.0667 -117.4167 148° Southeast 321 369 13,200 -1,440 Descending Southern California TRACON
11:20PM 33.0417 -117.3922 141° Southeast 323 372 12,600 -1,440 Descending Los Angeles Center
11:21PM 32.9536 -117.3233 147° Southeast 317 365 10,900 -1,380 Descending Los Angeles Center
11:22PM 32.8858 -117.2686 146° Southeast 303 349 9,800 -1,260 Descending Los Angeles Center
11:23PM 32.8203 -117.2150 145° Southeast 290 334 8,300 -1,320 Descending Los Angeles Center
11:24PM 32.7914 -117.1169 109° East 282 325 7,100 -660 Descending Los Angeles Center
11:25PM 32.7744 -117.0381 104° East 257 296 7,000 -60 Descending Los Angeles Center
11:26PM 32.7567 -116.9644 106° East 240 276 7,000 -360 Level Los Angeles Center
11:27PM 32.7408 -116.9011 107° East 209 241 6,300 -960 Descending Los Angeles Center
11:28PM 32.6958 -116.8744 153° Southeast 217 250 5,100 -720 Descending Los Angeles Center
11:29PM 32.6697 -116.9306 241° Southwest 204 235 4,900 -600 Descending Los Angeles Center
11:30PM 32.6833 -117.0000 283° West 178 205 3,900 -900 Descending Southern California TRACON
11:31PM 32.7000 -117.0500 292° West 161 185 3,100 -1,020 Descending Southern California TRACON
11:32PM 32.7167 -117.1000 292° West 156 180 1,900 -1,200 Descending Southern California TRACON
11:33PM 32.7197 -117.1356 276° West 148 170 800 -840 Descending Los Angeles Center
11:34PM 32.7317 -117.1797 288° West 137 158 200 -600 Descending Los Angeles Center